Showing default

EUTE 21A (EUTE W3), 25673

Orbit data source: Space-Track

EUTE 21A (EUTE W3), 25673 is a payload satellite owned by Eutelsat (FR) that was launched on Mon, 12 Apr 1999 UTC via an ATLAS IIAS launch vehicle from the Air Force Eastern Test Range (AFETR). Payloads include a variety of satellites, spacecraft, and rockets equipped with specific instruments for various scientific and technological missions. These include communications satellites like Starlink; space stations such as the ISS; scientific satellites like the Hubble; Earth observation satellites from companies like Planet Labs, Umbra, and HawkEye 360; GPS; miniature CubeSats for education and research; and military/defense satellites.

Not visible in the next 10 days
EUTE 21A (EUTE W3) details
Identifier
25673, 1999-018A
Orbit
Active
Last TLE update1 day ago
Origin
Flag of FREutelsat (FR / EUTE)
ManufacturerAlcatel/Cannes
MissionNon-operational Civil Communications
Bus & MotorSPACEBUS 3000B2, S400
Mass3,177 kg wet, 1,380 kg dry
Launch date (UTC)
1999-04-12 (26 years ago)
Launch vehicle
ATLAS IIAS
Launch site
Air Force Eastern Test Range (AFETR)
Object type
Payload
Rocket body
Debris
Shape & HBRBox + 2 Pan, Unknown HBR
Radar Cross Section32.393 m², Large (>1 m²)

Expand to show TLE details & history

TLE from 1 day ago
0 EUTE 21A (EUTE W3)
1 25673U 99018A   24347.81835821  .00000001  00000-0  00000+0 0  9996
2 25673   9.3152  55.7063 0005189 112.0908 258.2002  0.98428916 93373
Epoch: 2024-12-12T19:38Z
Definitive object data (Epoch: 2024-12-12T19:38:26.149Z)
Latitude1.66963°
Longitude49.19861°
Altitude36,315.104 km
Speed3.055 km/s
True Right ascension04h 23m 12s
True Declination1° 40' 05"
Sunlit
Object was in daylight at TLE epoch
Visualization TLE readout
Latitude4.51584°
Longitude67.67587°
Altitude36,307.573 km
Speed3.056 km/s
Apparent Right ascension05h 50m 11s
Apparent Declination0° 52' 28"
Sunlit
Object is in daylight
Visualization observer readout
Local Sidereal Time19:48:56
Azimuth42.228° NE
Elevation-42.532°
Doppler factor1
Orbital elements
Apogee altitude36,334.431 km
Perigee altitude36,290.127 km
Semi-major axis42,690.416 km
Eccentricity0.0005189
Inclination9.3152°
RAAN55.7063°
Arg. of periapsis112.0908°
True anomaly258.142°
Mean anomaly258.2002°
Eccentric anomaly258.1711°
Mean motion0.24606 °/min
BSTARUnknown
Orbital period1463.04 mins
Loading maneuver chart data...
Loading historical data...
Loading historical data...
Loading historical data...
Loading historical data...
Loading historical data...
Loading historical data...
Loading historical data...
Other satellites on launch #18 in the year 1999 (1999-04-12 UTC)

EUTE 21A (EUTE W3) Visibility forecast

Observer location: undefined°, undefined

EUTE 21A (EUTE W3) is not visible in the next 10 days
Span
Click to sort rows by Start time (UTC) header in descending order
Start Az.
Max El. time (UTC)
Max El. Az.
Max El.
End time (UTC)
End Az.
|